LU5DTF-1 Weather Reports


time (UTC)temp
C
wind
direction
speed
KPH
gust
KPH
rain 1hr
cm
rain 24hr
cm
rain mn
cm
humidity
%
barometer
mb
20260508154958 13 250 27.4 46.7 0.00 0.99 0.94 76 993.9
20260508154458 13 249 29.0 46.7 0.00 0.99 0.94 76 993.9
20260508153958 13 249 25.7 38.6 0.00 0.99 0.94 76 994.0
20260508153458 13 250 22.5 35.4 0.00 0.99 0.94 76 993.9
20260508152958 13 251 22.5 32.2 0.00 0.99 0.94 78 994.0
20260508152458 13 252 20.9 32.2 0.00 0.99 0.94 80 994.1
20260508151958 13 250 17.7 32.2 0.00 0.99 0.94 80 994.1
20260508151458 13 249 20.9 33.8 0.00 0.99 0.94 81 994.1
20260508150958 13 248 20.9 33.8 0.00 0.99 0.94 82 994.2
20260508145500 13 249 19.3 30.6 0.00 0.99 0.94 82 994.2
20260508144959 13 249 19.3 35.4 0.00 0.99 0.94 83 994.2
20260508143959 13 241 24.1 41.8 0.00 0.99 0.94 81 994.0
20260508143459 13 242 22.5 33.8 0.00 0.99 0.94 82 993.9
20260508142959 13 241 20.9 35.4 0.00 0.99 0.94 83 993.9
20260508142459 13 241 19.3 35.4 0.00 0.99 0.94 82 994.0
20260508141959 13 244 17.7 29.0 0.00 0.99 0.94 83 994.2
20260508141500 13 245 16.1 29.0 0.00 0.99 0.94 85 994.2
20260508140959 13 244 14.5 24.1 0.00 0.99 0.94 87 994.1
20260508140459 13 244 14.5 27.4 0.00 0.99 0.94 87 994.2
20260508135959 12 249 17.7 30.6 0.00 0.99 0.94 86 994.2
20260508135459 13 249 19.3 30.6 0.00 0.99 0.94 86 994.3
20260508134959 13 248 19.3 29.0 0.00 0.99 0.94 87 994.1
20260508134459 12 249 20.9 35.4 0.00 0.99 0.94 88 994.1
20260508133959 12 250 22.5 35.4 0.00 0.99 0.94 90 994.2
20260508133459 12 248 20.9 33.8 0.00 0.99 0.94 93 994.2
20260508133000 12 245 17.7 33.8 0.00 0.99 0.94 94 994.1
20260508132459 12 245 16.1 29.0 0.00 0.99 0.94 95 993.9
20260508131959 12 246 16.1 29.0 0.00 0.99 0.94 95 993.8
20260508131459 12 247 16.1 29.0 0.00 0.99 0.94 95 993.9
20260508130959 12 245 17.7 27.4 0.00 0.99 0.94 95 993.8
20260508130459 12 244 19.3 29.0 0.00 0.99 0.94 95 993.8
20260508130000 12 244 19.3 29.0 0.00 0.99 0.94 95 993.7
20260508125459 12 247 19.3 32.2 0.00 0.99 0.94 95 993.6
20260508124959 11 247 17.7 32.2 0.00 0.99 0.94 95 993.5
20260508124459 11 245 16.1 27.4 0.00 0.99 0.94 95 993.4
20260508123959 11 249 14.5 24.1 0.00 0.99 0.94 95 993.3
20260508123459 11 252 14.5 24.1 0.00 0.99 0.94 95 993.3
20260508122959 11 249 16.1 24.1 0.00 0.99 0.94 95 993.2
20260508122459 11 249 16.1 24.1 0.00 0.99 0.94 95 993.2
20260508121959 11 249 14.5 24.1 0.03 0.99 0.94 95 993.0
20260508121459 11 248 16.1 22.5 0.03 0.99 0.94 95 993.0
20260508120959 11 244 14.5 25.7 0.03 0.99 0.94 95 993.2
20260508120459 11 242 16.1 30.6 0.03 0.99 0.94 95 993.1
20260508115959 11 240 19.3 32.2 0.03 0.99 0.94 95 993.2
20260508115459 11 238 19.3 32.2 0.03 0.99 0.94 95 993.0
20260508114959 11 238 19.3 32.2 0.05 0.99 0.94 95 993.0
20260508114459 11 239 17.7 29.0 0.05 0.99 0.94 95 993.0
20260508113959 11 240 16.1 29.0 0.05 0.99 0.94 95 992.9
20260508113459 11 234 14.5 24.1 0.08 0.99 0.94 95 993.1
20260508112959 11 232 17.7 30.6 0.08 0.99 0.94 95 993.0
20260508112459 11 237 14.5 30.6 0.08 0.99 0.94 95 993.0
20260508111959 11 242 11.3 19.3 0.05 0.99 0.91 95 993.0
20260508111459 11 241 11.3 17.7 0.08 0.99 0.91 95 993.0
20260508110959 11 238 11.3 17.7 0.08 0.99 0.91 95 993.0
20260508110459 11 238 11.3 19.3 0.08 0.99 0.91 95 992.9
20260508105959 11 237 9.7 19.3 0.10 0.99 0.91 95 992.9
20260508105459 12 239 8.0 14.5 0.10 0.99 0.91 95 992.9
20260508104959 11 238 8.0 16.1 0.10 0.97 0.89 95 992.9
20260508104459 11 245 11.3 16.1 0.13 0.97 0.89 95 992.8
20260508103959 11 255 9.7 16.1 0.13 0.94 0.89 95 992.8
20260508103459 11 255 9.7 17.7 0.10 0.91 0.86 95 992.7
20260508102959 11 251 11.3 20.9 0.10 0.91 0.86 95 992.7
20260508102459 11 246 9.7 20.9 0.13 0.91 0.86 95 992.7
20260508101959 11 251 9.7 20.9 0.13 0.91 0.86 95 992.7
20260508101459 11 258 9.7 16.1 0.10 0.89 0.84 95 992.7
20260508100959 11 254 9.7 17.7 0.10 0.89 0.84 95 992.7
20260508100459 11 250 11.3 20.9 0.13 0.89 0.84 95 992.7
20260508095959 11 256 11.3 20.9 0.13 0.89 0.81 95 992.8
20260508095459 11 259 11.3 16.1 0.13 0.89 0.81 95 992.6
20260508094959 11 258 9.7 16.1 0.13 0.86 0.79 95 992.6
20260508094459 11 262 9.7 16.1 0.10 0.84 0.79 95 992.7
20260508093959 11 264 11.3 17.7 0.08 0.81 0.76 95 992.6
20260508093459 11 267 11.3 17.7 0.10 0.81 0.76 95 992.6
20260508092959 11 270 11.3 17.7 0.13 0.81 0.76 95 992.5
20260508092459 11 267 11.3 17.7 0.10 0.79 0.74 95 992.6
20260508091959 11 265 9.7 14.5 0.10 0.79 0.74 95 992.6
20260508091459 11 262 9.7 16.1 0.13 0.79 0.74 95 992.7
20260508090959 11 260 11.3 17.7 0.13 0.79 0.74 95 992.6
20260508090459 11 258 12.9 17.7 0.13 0.79 0.71 95 992.6
20260508085959 11 258 12.9 17.7 0.10 0.76 0.71 95 992.6
20260508085459 11 259 11.3 16.1 0.13 0.76 0.71 95 992.6
20260508084959 11 259 8.0 14.5 0.10 0.74 0.69 95 992.5
20260508084459 11 259 8.0 14.5 0.10 0.74 0.69 95 992.5
20260508083959 11 260 9.7 16.1 0.13 0.74 0.69 95 992.6
20260508083459 11 262 11.3 16.1 0.10 0.71 0.66 95 992.7
20260508082959 11 265 9.7 16.1 0.08 0.71 0.64 95 992.8
20260508082459 11 264 8.0 14.5 0.10 0.71 0.64 95 992.8
20260508081959 11 263 8.0 12.9 0.10 0.71 0.64 95 992.7
20260508081459 11 264 8.0 12.9 0.08 0.69 0.61 95 992.7
20260508080959 11 261 8.0 12.9 0.08 0.69 0.61 95 992.8
20260508080459 11 259 9.7 14.5 0.08 0.66 0.61 95 992.7
20260508075959 11 254 9.7 14.5 0.08 0.66 0.61 95 992.6
20260508075459 11 253 9.7 17.7 0.08 0.64 0.58 95 992.6
20260508074959 11 254 11.3 19.3 0.10 0.64 0.58 95 992.6
20260508074459 11 257 12.9 19.3 0.15 0.64 0.58 95 992.6
20260508073959 11 260 12.9 19.3 0.15 0.61 0.56 95 992.6
20260508073459 11 261 11.3 17.7 0.15 0.61 0.56 95 992.6
20260508072959 11 262 11.3 17.7 0.23 0.61 0.56 95 992.8
20260508072500 11 265 11.3 16.1 0.23 0.61 0.53 95 992.9
20260508071959 11 267 9.7 16.1 0.25 0.61 0.53 95 993.0
20260508071459 11 269 8.0 14.5 0.33 0.61 0.53 95 993.2
20260508070959 11 272 8.0 17.7 0.36 0.61 0.53 95 993.3
20260508070459 11 277 9.7 17.7 0.38 0.58 0.51 94 993.3
20260508065959 11 282 11.3 17.7 0.41 0.58 0.51 94 993.3
20260508065459 11 284 11.3 17.7 0.41 0.56 0.51 94 993.4
20260508064959 11 283 9.7 17.7 0.38 0.53 0.48 94 993.5
20260508064459 11 280 9.7 16.1 0.33 0.51 0.43 94 993.4
20260508063959 11 277 9.7 16.1 0.33 0.48 0.43 94 993.4
20260508063459 11 273 11.3 19.3 0.33 0.46 0.41 94 993.3
20260508062959 11 271 11.3 19.3 0.25 0.41 0.36 94 993.4
20260508062459 11 269 11.3 20.9 0.23 0.36 0.30 94 993.6
20260508061959 11 268 12.9 20.9 0.20 0.33 0.28 94 993.7
20260508061459 11 268 11.3 20.9 0.15 0.28 0.23 94 993.7
20260508060959 11 270 9.7 17.7 0.13 0.23 0.18 94 993.7
20260508060459 11 272 9.7 17.7 0.08 0.20 0.15 94 993.7
20260508055959 11 272 9.7 17.7 0.08 0.18 0.13 94 993.9
20260508055459 11 267 11.3 22.5 0.05 0.15 0.10 94 994.0
20260508055000 11 263 12.9 22.5 0.05 0.15 0.10 94 994.1
20260508054459 11 262 14.5 24.1 0.05 0.15 0.10 94 994.1
20260508053959 11 258 16.1 25.7 0.05 0.15 0.10 93 994.1
20260508053459 11 259 17.7 27.4 0.05 0.15 0.08 93 993.9
20260508052959 11 259 17.7 27.4 0.05 0.15 0.08 93 993.9
20260508052459 11 256 19.3 32.2 0.05 0.15 0.08 93 994.0
20260508051959 12 258 17.7 32.2 0.05 0.15 0.08 92 994.0
20260508051459 12 259 19.3 32.2 0.03 0.13 0.05 92 994.0
20260508050959 12 256 22.5 32.2 0.03 0.13 0.05 92 994.0
20260508050459 12 255 19.3 35.4 0.03 0.13 0.05 92 994.0
20260508045959 12 254 12.9 35.4 0.00 0.10 0.05 92 994.1
20260508045459 12 252 8.0 12.9 0.00 0.10 0.05 93 994.1
20260508044959 12 253 8.0 12.9 0.03 0.10 0.05 93 994.2
20260508044459 12 254 8.0 11.3 0.03 0.10 0.05 93 994.2
20260508043959 12 254 8.0 14.5 0.03 0.10 0.05 93 994.3
20260508043459 12 254 8.0 14.5 0.03 0.10 0.05 93 994.4
20260508042959 12 250 8.0 12.9 0.03 0.10 0.05 93 994.5
20260508042459 12 245 8.0 12.9 0.03 0.10 0.05 93 994.4
20260508041959 13 240 8.0 14.5 0.05 0.10 0.05 93 994.4
20260508041459 13 238 8.0 14.5 0.05 0.10 0.05 93 994.3
20260508040959 13 241 6.4 11.3 0.05 0.10 0.05 93 994.4
20260508040459 13 244 4.8 8.0 0.05 0.10 0.05 93 994.5
20260508035959 13 243 4.8 8.0 0.05 0.10 0.05 93 994.7
20260508035459 13 242 6.4 12.9 0.05 0.10 0.05 93 994.8
20260508034959 13 246 8.0 12.9 0.05 0.08 0.03 93 994.9
20260508034459 13 251 9.7 14.5 0.05 0.08 0.03 93 995.1
20260508033959 13 254 8.0 14.5 0.05 0.08 0.03 93 995.2
20260508033459 13 258 6.4 14.5 0.05 0.08 0.03 93 995.1
20260508032959 13 261 6.4 11.3 0.05 0.08 0.03 93 995.2
20260508032459 13 261 6.4 11.3 0.05 0.08 0.03 92 995.2
20260508031959 13 256 6.4 11.3 0.05 0.05 0.00 92 995.2
20260508031459 13 257 6.4 11.3 0.05 0.05 0.00 92 995.2
20260508030959 13 261 6.4 9.7 0.05 0.05 0.00 92 995.5
20260508025500 13 255 9.7 14.5 0.03 0.05 0.05 91 995.7
20260508025000 13 253 11.3 16.1 0.00 0.03 0.03 91 995.7
20260508024500 13 255 11.3 16.1 0.00 0.03 0.03 90 995.6
20260508024000 13 256 9.7 16.1 0.00 0.05 0.03 90 995.7
20260508023500 13 257 9.7 16.1 0.00 0.05 0.03 90 995.7
20260508023000 13 260 8.0 14.5 0.00 0.05 0.03 90 995.7
20260508022500 13 259 6.4 12.9 0.00 0.08 0.03 90 995.9
20260508022000 13 264 8.0 14.5 0.00 0.15 0.03 90 995.9
20260508021500 13 265 9.7 14.5 0.00 0.30 0.03 90 995.9
20260508021000 13 264 9.7 14.5 0.00 0.33 0.03 90 995.8
20260508020500 13 262 9.7 14.5 0.00 0.38 0.03 90 995.8
20260508020000 13 262 9.7 16.1 0.00 0.41 0.03 90 995.8
20260508015500 13 261 9.7 16.1 0.00 0.43 0.03 90 995.9
20260508015000 13 259 8.0 12.9 0.00 0.43 0.03 90 996.0
20260508014500 13 261 8.0 14.5 0.00 0.43 0.03 89 996.1
20260508014000 13 259 9.7 14.5 0.00 0.43 0.03 89 996.2
20260508013500 13 257 9.7 16.1 0.00 0.43 0.03 89 996.1
20260508013000 13 258 9.7 17.7 0.00 0.43 0.03 89 996.2
20260508012500 13 257 9.7 17.7 0.00 0.43 0.03 89 996.2
20260508012000 13 258 9.7 17.7 0.00 0.43 0.03 89 996.4
20260508011500 13 260 9.7 14.5 0.00 0.43 0.03 89 996.5
20260508011000 13 262 9.7 14.5 0.00 0.43 0.03 89 996.6
20260508010500 13 262 9.7 14.5 0.00 0.43 0.03 89 996.7
20260508010000 13 260 8.0 14.5 0.00 0.43 0.03 89 996.8
20260508005500 13 259 8.0 14.5 0.00 0.43 0.03 89 996.8
20260508005000 13 260 9.7 14.5 0.00 0.43 0.03 89 996.9
20260508004500 13 264 8.0 12.9 0.00 0.51 0.03 89 997.0
20260508004000 13 266 9.7 17.7 0.00 0.61 0.03 89 997.1
20260508003500 13 266 9.7 20.9 0.00 0.74 0.03 89 997.1
20260508003000 13 262 9.7 20.9 0.00 0.81 0.03 89 997.1
20260508002500 13 261 9.7 14.5 0.00 0.89 0.03 89 997.1
20260508002000 13 266 9.7 16.1 0.00 0.89 0.03 89 997.1
20260508001500 13 267 9.7 16.1 0.00 0.89 0.03 89 997.3
20260508001000 13 264 9.7 16.1 0.00 0.89 0.03 89 997.1
20260508000500 13 271 8.0 14.5 0.00 0.89 0.03 88 996.9
20260508000000 13 278 6.4 12.9 0.00 0.89 0.03 88 997.0
20260507235500 13 274 4.8 12.9 0.00 0.89 0.03 88 997.1
20260507235000 13 265 4.8 12.9 0.00 0.91 0.03 88 997.0
20260507234500 13 262 8.0 14.5 0.00 0.99 0.03 88 996.7
20260507234000 13 259 8.0 14.5 0.00 1.22 0.03 88 996.6
20260507233500 13 253 8.0 14.5 0.00 1.37 0.03 88 996.4
20260507233000 13 249 9.7 17.7 0.00 1.42 0.03 87 996.3
20260507232500 13 250 9.7 17.7 0.00 1.45 0.03 87 996.3
20260507232000 13 252 9.7 16.1 0.00 1.45 0.03 87 996.3
20260507231500 13 251 9.7 12.9 0.00 1.47 0.03 87 996.5
20260507231000 13 244 8.0 12.9 0.00 1.60 0.03 86 996.6
20260507230500 13 239 8.0 19.3 0.00 1.68 0.03 86 996.6
20260507230000 13 239 9.7 19.3 0.00 1.75 0.03 86 996.6
20260507225500 13 242 9.7 12.9 0.00 1.88 0.03 86 996.5
20260507225000 13 246 8.0 14.5 0.00 2.01 0.03 85 996.5
20260507224500 13 247 8.0 16.1 0.00 2.11 0.03 85 996.6
20260507224000 13 248 9.7 17.7 0.00 2.26 0.03 85 996.7
20260507223500 13 244 9.7 17.7 0.00 2.41 0.03 85 996.7
20260507223000 13 242 12.9 24.1 0.00 2.87 0.03 85 996.5
20260507222500 13 243 14.5 25.7 0.00 3.15 0.03 85 996.6
20260507222000 13 242 14.5 25.7 0.00 3.40 0.03 85 996.4
20260507221500 13 241 14.5 24.1 0.00 3.48 0.03 85 996.3
20260507221000 13 238 14.5 24.1 0.00 3.58 0.03 85 996.0
20260507220500 13 239 14.5 25.7 0.00 3.61 0.03 85 996.2
20260507220000 13 237 14.5 25.7 0.00 3.63 0.03 85 996.2
20260507215500 13 233 14.5 27.4 0.00 3.71 0.03 85 996.0
20260507215000 14 234 16.1 27.4 0.00 3.78 0.03 85 995.9
20260507214500 14 236 16.1 30.6 0.00 3.84 0.03 85 995.9
20260507214000 13 236 17.7 30.6 0.00 3.89 0.03 85 995.9
20260507213500 13 230 17.7 29.0 0.00 3.89 0.03 85 995.9
20260507213000 14 226 17.7 30.6 0.00 3.91 0.03 85 995.7
20260507212500 14 226 16.1 30.6 0.00 4.06 0.03 85 995.5
20260507212000 13 226 14.5 29.0 0.00 4.09 0.03 85 995.3
20260507211500 14 229 14.5 29.0 0.00 4.11 0.03 86 995.2
20260507211000 14 231 16.1 29.0 0.00 4.17 0.03 86 995.5
20260507210500 14 231 14.5 29.0 0.00 4.19 0.03 86 995.7
20260507210000 14 231 12.9 22.5 0.00 4.27 0.03 87 995.9
20260507205500 14 236 17.7 27.4 0.00 4.39 0.03 87 996.3
20260507205000 14 237 17.7 29.0 0.00 4.50 0.03 87 996.2
20260507204500 14 238 16.1 29.0 0.00 4.80 0.03 87 996.2
20260507204000 14 240 17.7 25.7 0.00 4.80 0.03 87 996.4
20260507203500 14 239 19.3 32.2 0.00 4.83 0.03 87 996.8
20260507203000 14 240 19.3 32.2 0.00 4.83 0.03 87 996.9
20260507202500 14 244 20.9 33.8 0.00 4.85 0.03 87 997.0
20260507202000 14 245 20.9 33.8 0.00 4.90 0.03 87 997.2
20260507201500 14 243 19.3 30.6 0.00 4.90 0.03 88 997.3
20260507201000 14 238 19.3 33.8 0.00 4.90 0.03 88 997.3
20260507200500 14 239 17.7 33.8 0.00 4.90 0.03 88 997.2
20260507200000 14 241 16.1 30.6 0.00 4.90 0.03 89 997.4
20260507195500 14 239 17.7 29.0 0.00 4.90 0.03 90 997.5
20260507195000 14 235 19.3 32.2 0.00 4.90 0.03 90 997.5
20260507194500 14 234 17.7 32.2 0.00 4.90 0.03 90 997.5
20260507194000 14 236 16.1 25.7 0.00 4.90 0.03 90 997.3
20260507193500 14 237 16.1 27.4 0.00 4.93 0.03 91 997.4
20260507193000 14 238 16.1 27.4 0.00 4.93 0.03 91 997.6
20260507192500 14 239 16.1 29.0 0.00 4.98 0.03 92 997.4
20260507192000 14 239 17.7 29.0 0.00 5.26 0.03 92 997.3
20260507191500 14 242 16.1 27.4 0.00 5.44 0.03 93 997.4
20260507191000 14 246 16.1 25.7 0.00 5.51 0.03 93 997.6
20260507190500 14 246 17.7 25.7 0.00 5.56 0.03 93 997.5
20260507190000 14 242 17.7 30.6 0.00 5.71 0.03 93 997.4
20260507185500 14 238 17.7 30.6 0.00 5.74 0.03 93 997.4
20260507185000 14 239 19.3 27.4 0.00 5.74 0.03 93 997.3
20260507184500 14 241 19.3 29.0 0.00 5.74 0.03 93 997.2
20260507184000 14 237 17.7 29.0 0.00 5.74 0.03 93 997.3
20260507183500 14 235 14.5 25.7 0.00 5.74 0.03 93 997.2
20260507183000 14 241 16.1 30.6 0.00 5.74 0.03 93 997.2
20260507182500 14 242 19.3 33.8 0.00 5.74 0.03 93 997.2
20260507181959 14 241 20.9 33.8 0.00 5.74 0.03 93 997.3
20260507181500 14 240 19.3 32.2 0.00 5.74 0.03 93 997.1
20260507180959 14 241 16.1 32.2 0.00 5.74 0.03 93 997.2
20260507180459 15 247 14.5 27.4 0.00 5.74 0.03 94 997.2
20260507180000 14 244 14.5 27.4 0.00 5.74 0.03 94 997.4
20260507175459 14 237 14.5 25.7 0.00 5.74 0.03 94 997.4
20260507175000 14 234 14.5 25.7 0.00 5.74 0.03 94 997.4
20260507174500 14 228 11.3 24.1 0.00 5.74 0.03 94 997.4
20260507173959 14 228 12.9 25.7 0.00 5.74 0.03 94 997.1
20260507173500 14 231 14.5 25.7 0.00 5.74 0.03 94 997.0
20260507173000 14 229 14.5 20.9 0.00 5.74 0.03 94 996.9
20260507172500 14 235 14.5 25.7 0.00 5.74 0.03 94 997.0
20260507172000 14 239 12.9 25.7 0.00 5.77 0.03 94 996.9
20260507171500 14 237 12.9 24.1 0.00 5.77 0.03 94 996.8
20260507171000 14 239 14.5 24.1 0.00 5.77 0.03 94 996.8
20260507170500 14 244 14.5 22.5 0.00 5.79 0.03 94 996.9
20260507170000 14 242 14.5 22.5 0.00 5.87 0.03 94 997.0
20260507165459 13 241 14.5 25.7 0.00 5.89 0.03 94 997.1
20260507164959 13 240 14.5 25.7 0.00 5.89 0.03 94 997.1
20260507164500 14 241 14.5 22.5 0.00 5.89 0.03 94 997.1
20260507164000 14 242 12.9 22.5 0.00 5.89 0.03 94 997.2
20260507163459 14 235 11.3 19.3 0.00 5.89 0.03 94 997.5
20260507163000 14 234 9.7 19.3 0.00 5.89 0.03 94 997.4
20260507162459 14 234 8.0 14.5 0.00 5.89 0.03 93 997.4
20260507161959 14 236 8.0 17.7 0.00 5.89 0.03 93 997.5
20260507161500 14 242 11.3 17.7 0.00 5.89 0.03 93 997.6
20260507160959 14 240 11.3 17.7 0.00 5.89 0.03 93 997.6
20260507160500 14 234 11.3 17.7 0.00 5.89 0.03 92 997.6
20260507160001 14 229 9.7 14.5 0.00 5.89 0.03 91 997.6
20260507155500 14 225 9.7 20.9 0.00 5.89 0.03 91 997.2